sat.trackr.live / text

‹ back to catalog

2024-105C

NORAD 59919 · 2024-105C

PAYLOAD ACTIVE UNKNOWN

§ Identity

Operator
Country
PRC
Launch date
2024-05-30
Launch site
JSC
Launch vehicle
Mass (kg)
RCS (m²)

External: N2YO · Heavens-Above · Gunter

§ Orbital elements

Epoch: 2026-05-17T08:21:51.618240Z

Period
94.76 min
Inclination
97.5921°
Eccentricity
0.0041166
Mean motion
15.19700486 rev/d
Perigee alt
478.4 km
Apogee alt
535.1 km
Semi-major
6,884.9 km
B*
1.4767e-4
RAAN
154.2007°
Arg perigee
4.8198°
Mean anomaly
355.3425°
Rev number
10,848

§ Raw data

2024-105C1 59919U 24105C   26137.34851410  .00003149  00000+0  14767-3 0  99942 59919  97.5921 154.2007 0041166   4.8198 355.3425 15.19700486108484

JSON: /api/v1/satellites/59919 · /tle

For live sub-satellite position, see the globe view (requires WebGL).

§ Visibility from observer

Set your observer location to see the next 7 days of passes ≥ 10°. The values pass through the URL so the page stays shareable.

No JS? Fill the form by hand. The geolocation button needs JavaScript.